{"data":{"norad_id":58709,"intl_designator":"2024-002E","name":"STARLINK-11076 [DTC]","alt_names":[],"object_type":"PAYLOAD","status":"ACTIVE","operator":null,"country":"US","launch_date":"2024-01-03","launch_site_code":"AFWTR","launch_vehicle":null,"mission":null,"orbit_class":"UNKNOWN","rcs_meters":null,"size_class":null,"mass_kg":null,"dimensions":null,"purposes":["comms"],"wikipedia_slug":null,"has_3d_model":false,"image_url":null,"decayed_at":null,"tle_current":{"epoch":"2026-05-24T17:46:48.032544Z","epoch_age_seconds":93397,"freshness":"FRESH","line1":"1 58709U 24002E   26144.74083371  .00001296  00000+0  15553-4 0  9997","line2":"2 58709  53.1595 258.9993 0001172  98.5724 261.5427 15.69707531138384","mean_motion":15.69707531,"eccentricity":0.0001172,"inclination_deg":53.1595,"raan_deg":258.9993,"arg_perigee_deg":98.5724,"mean_anomaly_deg":261.5427,"bstar":1.5553e-5,"rev_number":13838,"period_min":91.736834509715,"perigee_km":358.94413730235,"apogee_km":360.52349422157,"semimajor_km":6737.870815762,"source":"CELESTRAK","updated_at":"2026-05-25T13:38:18.715350Z"}}}